Regional Weather Roundup
Issued by NWS

Home | Current Version | Previous Version | Graphics & Text | Print | Product List | Glossary On
Versions: 1 2 3 4 5 6 7 8 9 10 11 12 13 14 15 16 17 18 19 20 21 22 23 24 25 26 27 28 29 30 31 32 33 34 35 36 37 38 39 40 41 42 43 44 45 46 47 48 49 50
712
ASUS43 KLMK 281002
RWRKY
KENTUCKY REGIONAL WEATHER ROUNDUP
NATIONAL WEATHER SERVICE LOUISVILLE KY
600 AM EDT FRI APR 28 2017

NOTE "FAIR" INDICATES FEW OR NO CLOUDS BELOW 12,000 FEET
WITH NO SIGNIFICANT WEATHER AND/OR OBSTRUCTIONS TO VISIBILITY.

KYZ001>023-026-027-061>063-070>075-281100-
WESTERN AND SOUTH CENTRAL KENTUCKY

CITY           SKY/WX    TMP DP  RH WIND       PRES   REMARKS
PADUCAH        PTCLDY    55  51  86 E7        29.87S
HENDERSON      CLOUDY    52  48  86 E6        29.93R
OWENSBORO      PTCLDY    52  48  86 S5        29.95R
HOPKINSVILLE   MOCLDY    54  52  93 E6        29.91R
BOWLING GREEN  CLOUDY    50  49  96 E5        29.92F
GLASGOW        NOT AVBL
$$

KYZ024-025-028>034-038-045-046-053-281100-
NORTH CENTRAL KENTUCKY

CITY           SKY/WX    TMP DP  RH WIND       PRES   REMARKS
LOUISVILLE/SDF CLOUDY    51  48  89 SE3       29.95R
LOUISVILLE/LOU NOT AVBL
FORT KNOX      CLOUDY    48  46  93 E5        29.94R
$$

KYZ035>037-039>044-047>052-055>060-089>105-281100-
NORTHEAST KENTUCKY

CITY           SKY/WX    TMP DP  RH WIND       PRES   REMARKS
LEXINGTON      CLEAR     47  42  83 CALM      29.98R
COVINGTON      CLOUDY    51  46  83 NE9       29.97R
FRANKFORT      CLEAR     46  42  86 CALM      29.97R
$$

KYZ054-064>069-076>088-106>120-281100-
SOUTHEAST KENTUCKY

CITY           SKY/WX    TMP DP  RH WIND       PRES   REMARKS
JACKSON        CLEAR     53  48  83 NE3       29.99R
LONDON         CLEAR     51  48  89 CALM      29.98R
SOMERSET       NOT AVBL
MIDDLESBORO    FOG       50  50 100 CALM      30.00R VSB 3/4
MONTICELLO     SUNNY     46  46 100 NE8       29.98R
$$





USA.gov is the U.S. government's official web portal to all federal, state and local government web resources and services.